Location: Petruro
(41.0333°N, 14.7833°E)
Time: 19:57:05
(UTC+00:00)

CZ-4C R/B - Pass Details

Date: 21 October 2021
Orbit: 463 x 631 km, 98.0° (Epoch: 27 November)

Event Time Altitude Azimuth Distance (km) Brightness Sun altitude
Rises 16:33:03 0° 353° (N) 2,846 6.9 -4.9°
Reaches altitude 10° 16:36:01 10° 329° (NNW) 1,967 6.4 -5.4°
Maximum altitude 16:38:23 15° 296° (WNW) 1,692 6.7 -5.8°
Drops below altitude 10° 16:40:47 10° 262° (W) 1,994 8.0 -6.3°
Sets 16:43:50 0° 239° (WSW) 2,909 8.5 -6.9°
